Wind_Speed
75 76 76 77 78 78 79 79 79 79 79 79 79 79 79 79 80 80 80 80 80 80 80 80 80 81 81 81 81 81 81 81 80 81 81 81 81 81 81 81 81 81 81 82 83 83 84 85 86 87 88 89 90 90 91 92 93 94 94 95 96 98 99 100 99 99 99 99 99 99 100 100 100 100 100 101 101 102 103 104 106 105 104 104 103 104 105 106
75 75 76 76 76 77 77 78 78 78 79 79 79 79 79 79 79 80 80 80 80 80 80 80 80 80 81 81 81 81 81 81 80 80 81 80 80 79 79 79 78 78 79 79 80 81 81 82 83 84 85 86 86 87 88 89 90 91 91 92 93 94 95 94 94 94 94 94 94 95 96 97 98 98 98 99 99 100 102 103 105 105 104 104 104 105 105 105
74 74 75 75 76 76 76 76 76 77 77 77 78 78 78 78 78 79 79 79 79 79 79 79 80 80 80 80 81 81 80 80 80 80 80 79 78 78 77 77 77 77 78 78 78 79 79 80 81 82 83 83 84 85 85 86 87 88 89 90 91 91 91 90 90 90 90 91 91 92 93 94 95 95 95 96 96 97 99 101 103 103 103 102 102 102 102 101
72 73 74 74 74 75 75 75 75 75 76 76 76 76 76 76 76 76 76 76 76 76 77 77 77 77 77 78 78 78 77 77 77 77 77 77 77 77 77 76 76 76 77 77 77 78 78 79 79 80 81 81 83 83 84 84 85 86 87 88 88 88 88 88 88 88 88 89 89 90 90 91 91 92 92 92 93 94 95 97 98 98 98 97 97 98 98 97
69 70 71 72 72 72 73 73 73 73 74 74 74 74 73 73 73 73 73 73 73 73 73 74 74 74 74 73 73 73 73 73 73 73 73 74 74 75 75 75 75 75 75 75 75 76 76 76 77 78 78 79 80 81 81 82 83 84 85 86 86 85 85 85 86 86 86 87 87 87 87 87 88 88 88 89 89 90 91 92 92 93 92 92 93 94 94 95
65 66 67 68 68 69 69 70 70 71 71 71 71 71 71 71 70 70 70 70 70 70 70 70 70 70 70 70 69 69 69 69 69 69 69 70 71 71 71 72 72 72 72 72 72 72 72 73 73 74 75 76 77 77 78 79 80 81 83 83 82 82 82 82 83 83 83 83 83 84 84 84 85 85 86 86 86 87 88 88 88 88 88 89 91 92 92 92
61 62 63 64 64 65 65 66 67 67 67 67 67 67 67 66 66 65 65 65 65 65 64 64 64 64 64 64 64 64 64 64 64 65 65 66 66 66 67 67 68 68 68 68 68 69 69 70 70 71 72 72 73 73 74 76 77 78 79 78 78 79 79 79 80 80 80 81 81 82 82 82 82 83 84 84 84 85 86 86 86 86 87 88 90 90 90 90
57 58 59 59 60 60 61 61 62 62 62 62 62 61 61 60 59 59 58 57 57 57 56 56 56 56 56 57 57 58 58 59 60 60 61 61 62 63 63 64 64 64 65 66 66 67 68 69 69 70 70 70 71 71 72 74 74 75 75 76 76 77 77 78 79 79 80 80 81 81 81 81 81 82 82 82 83 84 84 84 85 85 86 87 87 88 88 89
54 54 55 55 56 56 56 57 57 57 56 56 55 55 54 53 52 51 51 50 50 50 50 50 50 51 51 52 53 54 55 56 57 58 59 59 60 61 62 62 63 63 64 64 65 66 66 67 67 67 67 67 68 69 70 71 71 72 72 73 75 76 77 78 79 79 79 80 80 80 80 80 81 81 82 82 83 83 84 84 84 84 85 85 86 87 87 88
51 51 52 52 52 52 52 52 52 51 51 50 50 49 48 48 47 47 47 47 48 48 48 48 49 50 50 52 53 53 55 56 57 57 58 58 59 60 60 61 61 61 61 61 62 61 61 61 61 61 61 62 62 63 65 65 66 67 68 69 71 72 74 75 76 77 77 78 78 79 79 79 80 81 81 82 82 82 83 84 84 84 84 85 85 86 87 87
48 49 49 50 50 50 50 49 48 47 47 47 47 46 46 46 46 46 46 47 48 49 49 49 50 50 51 52 53 53 54 55 55 56 56 56 56 56 56 56 56 56 56 56 55 55 55 54 54 54 54 55 55 56 57 58 59 60 61 62 64 65 67 69 70 71 72 73 73 74 75 76 78 78 79 80 80 80 81 82 83 83 84 84 85 85 86 87
47 48 48 48 48 48 48 47 46 46 46 46 46 46 46 46 46 47 47 48 49 49 50 50 50 51 51 51 51 52 52 52 52 52 51 51 51 51 51 51 51 50 50 50 49 49 48 48 48 48 48 48 49 49 50 51 52 52 54 55 56 57 58 60 61 62 63 64 65 67 69 70 72 72 73 74 75 76 77 78 79 80 81 81 82 83 84 84
47 47 47 47 47 47 46 46 46 46 46 46 46 46 46 47 47 47 48 49 49 50 50 50 50 49 49 48 48 48 48 48 48 47 47 46 45 45 45 45 45 45 45 44 44 44 43 42 42 42 43 43 43 44 45 45 46 47 48 48 49 50 51 52 53 54 54 55 56 59 61 62 64 65 66 67 68 70 71 72 73 75 76 76 77 78 79 79
46 46 46 46 46 46 46 46 46 46 46 46 47 47 47 47 48 48 48 49 49 49 48 48 47 46 45 45 45 45 44 44 43 43 42 42 41 41 41 42 42 41 41 41 40 40 39 39 39 39 39 38 39 39 39 40 41 41 42 43 44 45 45 46 47 47 47 48 49 51 54 55 56 57 58 59 61 62 64 65 66 68 69 70 70 71 73 74
47 46 46 46 46 46 46 46 46 46 46 47 47 47 48 48 48 48 48 48 47 47 46 45 44 43 42 41 41 41 41 40 40 39 39 39 39 39 39 39 39 39 39 38 38 38 37 37 37 36 36 36 36 36 36 36 37 38 38 39 40 41 41 41 43 43 43 43 44 46 49 49 50 51 51 52 54 55 57 58 58 60 62 63 63 65 66 66
47 47 47 47 47 47 46 46 46 47 47 48 48 48 47 47 47 47 46 45 45 44 43 42 42 40 39 38 39 38 38 38 38 38 38 38 38 38 38 38 38 38 38 38 37 37 37 36 36 35 35 35 34 34 34 34 34 35 36 36 37 38 38 39 40 40 40 41 41 43 45 45 45 46 46 46 48 49 51 52 52 54 55 56 57 57 58 59
48 48 48 47 47 47 47 47 47 47 47 47 47 46 46 45 45 44 44 43 42 42 41 40 40 38 37 37 37 37 38 38 38 38 38 39 39 39 38 38 38 38 38 38 38 38 38 37 36 36 35 35 35 34 34 34 34 34 35 35 36 37 37 38 38 38 39 39 39 41 42 42 42 41 41 41 43 45 47 47 47 49 50 50 51 52 53 54
48 48 48 48 47 47 47 46 46 46 46 45 44 44 43 43 42 42 41 41 40 40 39 39 38 37 38 38 37 38 39 39 39 39 40 40 39 39 39 39 39 39 39 40 40 40 40 39 38 37 37 37 37 36 36 35 35 35 35 36 36 37 37 37 37 38 38 38 38 39 40 40 40 39 38 39 39 42 44 44 44 46 46 46 47 48 49 50
47 47 47 47 46 46 45 44 44 43 43 42 41 41 41 41 40 40 40 39 39 39 38 38 38 38 38 38 38 38 39 40 40 40 41 41 40 40 40 40 40 40 41 41 41 41 41 40 39 39 39 40 39 38 38 38 37 37 37 37 37 37 37 37 37 37 38 38 37 38 40 40 40 39 38 39 39 40 42 43 43 44 44 44 44 45 45 45
45 45 44 44 44 43 42 41 40 40 40 40 39 39 39 39 39 39 39 38 39 39 38 38 38 38 39 39 39 39 39 40 41 41 41 41 41 41 41 41 41 41 42 42 42 42 41 41 40 40 42 42 42 41 41 40 40 40 40 39 39 39 38 38 38 38 38 39 38 39 41 41 41 41 41 41 41 41 42 43 43 43 43 42 42 41 41 41
42 42 42 41 41 40 39 38 37 38 38 38 38 37 37 38 38 38 38 38 38 39 38 38 39 39 39 39 40 40 40 41 41 41 41 42 42 42 42 42 41 42 42 43 43 42 41 40 40 41 43 44 44 43 43 43 42 42 42 42 42 41 40 39 39 39 40 40 40 41 42 43 43 43 43 43 43 43 43 43 43 43 43 42 41 40 39 39
39 39 39 39 38 37 37 36 36 36 37 37 36 36 36 36 36 37 37 37 38 38 38 38 39 39 39 39 40 40 40 41 41 41 41 41 41 41 41 41 41 42 42 43 43 42 41 39 40 42 44 45 44 44 44 44 44 44 44 44 43 42 41 41 41 41 42 42 42 43 44 44 44 45 44 44 44 44 44 44 44 43 43 43 42 40 39 38
38 38 37 37 37 37 36 36 36 36 36 36 35 35 35 35 35 36 36 37 38 38 38 38 39 38 38 38 39 40 40 41 41 41 41 41 41 41 41 41 40 41 42 42 42 41 39 38 39 41 42 43 43 44 44 44 44 44 45 45 44 43 43 43 42 42 43 45 45 45 46 46 45 45 45 45 44 44 44 44 44 44 43 43 42 41 40 39
37 37 37 37 37 37 37 37 37 37 36 36 35 35 35 35 35 36 37 37 38 38 38 38 38 38 37 37 38 39 40 40 40 40 40 40 40 40 40 39 39 40 40 41 41 39 37 37 37 38 39 41 41 42 43 43 43 43 44 45 44 44 44 44 43 44 45 46 46 46 47 47 46 46 46 46 46 46 46 46 45 45 44 44 44 43 42 41
38 38 38 38 37 37 37 37 37 37 36 36 35 35 35 35 36 37 37 38 38 38 38 38 37 37 36 36 37 38 39 39 39 39 39 38 38 38 38 38 39 39 40 40 40 38 36 36 36 36 38 39 40 40 40 41 41 41 42 42 42 42 43 43 43 44 46 47 46 47 49 48 47 48 47 48 48 48 48 47 46 46 46 46 46 46 45 44
39 39 39 38 37 37 37 37 37 37 36 36 36 36 36 36 37 38 38 38 39 38 37 37 36 36 36 36 36 37 37 37 37 37 37 37 37 37 37 38 38 39 39 40 39 38 37 37 37 36 37 39 39 39 38 39 39 39 40 39 39 39 39 40 40 42 43 44 44 46 49 48 48 49 48 48 49 49 49 48 47 48 48 48 48 48 47 47
40 40 39 39 38 37 37 38 37 37 37 37 37 37 37 37 38 39 39 39 39 38 38 37 36 36 35 36 36 37 37 37 37 37 37 37 37 37 37 38 38 39 40 40 40 39 38 38 38 38 39 40 39 39 39 39 39 39 39 38 38 37 37 37 37 38 39 39 41 43 45 46 46 48 48 48 49 49 49 48 48 49 49 49 49 49 49 49
41 41 40 40 39 39 39 39 39 38 39 39 38 39 39 39 39 40 40 40 40 39 39 38 37 36 36 37 37 38 38 38 38 38 38 38 38 38 38 38 39 40 40 41 41 40 40 40 40 40 41 41 41 40 40 40 41 41 39 39 39 38 37 37 37 37 37 38 39 39 41 42 42 44 45 46 47 47 47 47 48 48 48 49 49 49 49 50
41 41 42 42 42 41 41 41 41 41 40 40 40 41 41 40 41 41 42 42 41 41 40 39 39 38 39 39 39 39 39 39 40 40 40 40 40 39 39 39 40 41 42 43 43 42 42 42 42 42 43 43 42 42 43 42 43 43 41 41 41 40 40 39 39 39 39 39 40 39 39 39 40 41 43 44 44 43 43 45 46 47 48 48 48 48 49 50
42 42 43 43 44 44 44 44 44 43 43 42 43 43 42 42 43 43 44 44 43 42 42 41 41 41 41 42 41 41 41 41 42 42 42 42 42 41 41 41 42 43 43 44 44 44 44 44 44 44 44 44 44 44 44 44 45 44 43 43 43 43 43 42 42 42 42 42 43 42 40 40 41 42 43 45 44 42 41 41 42 44 45 46 47 48 49 50
44 44 45 45 45 46 46 46 46 45 45 45 45 45 45 45 45 45 45 45 44 44 44 44 44 44 44 44 44 44 44 44 45 45 44 44 44 44 44 44 45 45 45 46 46 46 46 46 46 46 47 47 46 46 46 45 46 45 45 46 46 45 45 44 45 45 45 45 45 44 43 42 44 44 45 46 46 45 44 43 42 42 43 43 45 46 47 49
47 47 47 47 47 48 47 47 47 47 47 47 46 46 46 47 47 47 47 46 46 46 46 46 46 46 46 46 46 46 46 47 47 47 47 46 46 47 47 47 48 48 48 48 49 48 48 47 47 48 48 48 48 48 47 47 46 46 47 48 47 48 47 46 47 47 47 47 47 47 46 45 46 47 47 48 48 49 48 47 46 45 45 44 44 44 45 47
49 49 49 50 50 50 49 49 49 49 49 48 48 48 48 48 48 49 49 47 47 48 48 48 48 49 49 49 48 49 49 49 49 49 49 48 48 49 49 50 50 50 50 51 51 51 50 50 50 49 49 49 49 49 48 48 48 47 48 49 47 49 49 47 48 48 48 50 49 48 48 47 48 50 50 50 51 52 52 52 51 50 49 49 47 47 47 47
52 52 52 52 52 51 51 51 51 50 50 50 50 50 50 50 50 50 51 50 50 50 50 50 51 51 51 51 51 51 51 51 51 51 51 51 50 51 51 52 52 52 52 53 53 53 52 52 52 51 50 51 50 49 49 49 49 48 49 49 48 50 50 48 48 48 49 51 50 49 49 49 50 52 51 52 53 54 55 55 54 53 53 52 51 51 50 50
52 53 53 54 54 54 53 53 53 52 52 52 52 52 52 52 52 52 53 52 52 52 52 52 52 53 52 52 52 52 52 53 53 53 52 52 52 52 53 54 54 54 54 54 54 54 54 53 53 52 51 51 50 50 50 49 50 50 49 50 51 52 51 50 49 50 50 52 50 49 50 51 52 53 52 53 54 55 56 56 56 56 55 54 54 54 53 53
53 53 54 54 54 55 55 55 55 54 54 54 54 54 54 54 54 55 54 54 54 54 54 54 54 54 54 54 54 54 54 54 54 54 54 54 54 54 54 54 54 54 53 53 53 53 53 52 52 52 51 51 51 50 50 50 50 51 50 51 52 51 52 52 51 51 52 52 52 51 52 53 54 54 54 56 56 57 57 57 58 58 57 56 56 56 56 56
52 53 54 55 55 55 55 55 55 55 56 56 56 56 56 56 56 56 56 56 56 56 55 55 56 56 55 55 55 55 56 56 56 56 55 55 55 54 53 53 52 52 51 50 50 50 51 51 51 51 50 50 51 50 50 50 51 51 51 51 52 51 52 53 53 52 53 53 53 53 53 55 56 56 57 58 58 58 59 59 59 60 59 59 58 58 58 57
47 50 52 54 55 55 55 55 55 55 55 56 56 56 57 57 58 58 58 57 57 57 57 57 57 57 56 57 57 57 58 58 57 57 56 54 53 52 51 50 50 49 49 49 48 48 49 50 50 50 49 49 50 50 50 50 50 51 51 51 52 52 53 53 53 52 53 54 53 53 54 55 57 58 59 59 58 58 59 59 60 60 60 60 60 60 59 59
39 43 47 50 52 53 54 55 56 56 56 56 56 56 56 56 57 57 57 57 58 58 58 57 58 58 57 58 58 58 58 57 56 56 54 52 51 50 49 49 49 48 48 48 48 47 48 49 49 49 49 49 50 49 49 50 50 50 50 51 52 52 53 54 53 53 54 54 53 53 53 54 56 58 59 58 56 56 57 58 58 59 60 60 60 60 60 59
32 35 39 42 46 48 51 52 54 55 56 56 56 56 56 56 56 56 56 56 56 57 57 56 56 56 56 56 56 56 56 56 55 54 52 51 50 50 49 49 49 48 48 48 48 47 47 48 49 49 49 50 50 49 49 50 50 51 51 52 52 53 53 54 53 53 54 54 53 52 50 51 55 56 56 55 54 54 55 56 56 57 57 58 58 58 58 58
31 31 32 34 37 41 45 47 49 51 52 54 55 55 56 56 56 56 56 56 56 56 56 56 56 55 55 55 55 55 55 55 54 53 52 51 51 50 49 49 49 49 49 49 48 48 48 48 49 48 49 51 50 50 50 51 52 52 53 53 53 54 54 53 52 52 53 52 51 50 47 49 53 53 52 53 53 53 53 53 54 54 54 55 55 55 56 56
30 31 31 31 32 34 37 40 44 45 47 49 50 51 52 53 55 55 56 56 56 56 56 56 56 56 55 55 55 55 55 55 55 54 53 52 52 51 50 50 50 50 50 50 49 49 49 49 49 49 50 51 51 51 52 52 53 53 54 53 53 54 54 53 52 52 51 49 49 49 47 48 50 50 50 52 52 52 51 51 51 52 52 53 53 53 54 54
31 31 31 31 31 32 32 34 37 40 42 44 45 46 47 49 50 51 53 54 55 55 56 56 56 56 56 56 56 56 56 55 55 55 54 54 53 52 51 51 51 51 51 50 50 50 51 50 50 50 51 52 52 53 53 53 54 54 53 53 53 53 53 53 53 53 51 48 48 49 48 48 49 49 50 50 50 51 51 50 51 51 51 52 52 52 52 52
33 32 32 31 31 32 32 32 34 35 36 39 40 42 43 44 45 47 48 49 50 51 52 53 54 55 55 56 56 56 56 56 56 55 55 54 54 53 53 52 52 52 52 52 51 51 52 52 51 53 53 53 54 54 54 54 54 53 53 52 53 53 53 53 53 53 52 49 49 49 49 49 50 49 50 51 51 51 52 51 51 52 52 52 52 52 51 51
36 35 34 33 32 32 32 33 34 34 34 35 36 37 39 40 42 43 44 45 46 47 48 49 50 51 52 53 54 55 55 56 55 55 55 55 54 54 54 53 53 53 53 53 53 53 54 53 53 55 55 54 55 55 55 55 54 54 54 53 54 54 54 53 53 53 52 50 50 50 51 52 52 51 53 54 53 54 53 52 52 52 52 52 52 53 52 52
38 37 36 36 34 33 33 34 34 35 35 35 35 36 37 37 39 40 41 42 43 45 46 47 47 48 49 50 51 52 52 53 54 53 53 54 55 54 54 54 54 54 54 54 55 55 55 55 55 56 56 55 55 55 54 55 55 54 54 55 55 55 55 54 53 53 53 52 51 51 53 54 54 54 56 57 56 56 55 54 54 53 53 53 53 53 54 54
39 39 39 38 37 36 35 35 35 35 35 36 36 36 37 37 37 38 39 39 41 42 43 44 45 46 47 48 49 49 49 50 51 52 52 53 54 54 54 55 54 55 55 55 56 56 56 56 56 56 56 55 55 54 53 54 55 55 56 56 56 56 55 55 53 53 54 54 53 54 54 54 56 57 58 58 58 57 57 57 57 56 56 55 55 55 55 56
41 41 41 40 39 38 38 38 38 37 37 37 36 36 37 37 37 38 39 39 40 41 41 42 43 44 45 46 47 47 48 49 49 50 51 52 53 54 54 54 55 55 56 56 56 56 56 56 55 55 55 54 53 53 53 54 55 56 56 56 56 55 54 54 53 54 56 55 55 56 54 52 56 59 59 60 60 59 59 60 59 59 59 58 58 58 58 58
43 43 43 42 41 41 41 40 41 40 40 39 39 38 38 38 38 38 39 40 41 41 42 42 42 43 44 45 46 46 46 47 48 49 51 51 51 52 53 53 53 54 55 55 55 55 55 55 53 53 54 53 53 54 53 54 54 54 54 55 55 55 54 54 55 56 58 56 57 58 55 53 57 61 62 63 63 62 62 61 61 61 62 62 62 62 61 61
46 45 45 44 43 43 43 43 43 43 43 42 42 41 41 40 40 39 39 40 41 41 42 43 43 44 44 45 46 46 46 47 48 49 50 50 50 51 51 51 52 53 53 53 53 53 54 54 52 54 54 53 54 54 53 53 53 52 52 53 54 55 56 57 58 59 59 59 59 60 58 57 60 63 65 67 67 65 64 64 64 64 64 65 65 65 64 64
48 47 47 46 46 45 45 45 45 45 45 45 44 44 44 43 43 43 42 42 42 42 43 43 43 44 45 45 46 46 46 47 48 49 50 50 50 51 51 51 52 52 53 53 53 53 54 54 54 55 54 53 54 54 53 54 53 51 52 53 55 58 60 60 61 62 62 62 64 64 62 61 63 65 68 70 70 69 68 68 68 67 67 67 67 67 67 67
49 49 49 49 48 48 48 47 47 47 47 47 47 47 47 46 46 46 46 45 45 45 45 45 45 45 45 45 46 46 47 47 48 48 49 50 51 51 52 52 53 53 53 54 54 54 55 55 55 54 53 52 53 53 54 56 54 52 53 55 59 62 63 62 64 65 66 67 67 67 66 66 67 68 71 72 72 72 72 71 71 71 70 70 69 69 68 68
Wind_Direction
249 250 250 250 251 251 251 252 252 252 253 253 254 254 254 255 255 256 256 257 257 258 258 259 259 260 260 261 261 261 262 262 262 262 262 263 263 263 262 262 261 261 260 259 259 259 259 259 259 259 259 259 259 259 260 260 260 260 261 261 261 261 262 263 263 264 264 264 264 264 264 264 264 264 264 264 265 265 266 266 267 267 268 268 268 269 269 270
250 251 251 252 252 252 253 253 254 254 254 255 255 255 256 256 256 257 258 258 259 259 260 260 260 261 261 262 262 262 263 263 263 263 263 263 263 263 263 262 262 261 261 260 260 259 259 259 259 259 259 259 259 259 260 260 260 260 260 260 260 261 261 262 262 262 262 262 262 262 262 262 262 263 263 263 264 264 265 266 266 267 267 267 268 268 269 270
251 252 252 253 253 254 254 255 255 255 256 256 256 257 257 258 258 259 259 260 260 261 261 261 262 262 262 263 263 263 264 264 264 264 264 264 264 263 263 263 262 262 261 261 261 260 260 260 260 260 260 260 260 260 260 260 260 260 260 260 260 260 261 261 261 261 261 261 261 261 261 262 262 262 262 262 263 263 264 265 266 266 267 267 268 268 269 270
252 252 253 254 254 255 255 256 256 257 257 257 258 258 259 259 260 260 261 261 261 262 262 262 263 263 263 263 264 264 264 264 264 264 264 264 264 263 263 263 263 262 262 262 262 261 261 261 261 261 261 260 260 260 259 259 259 259 259 259 260 260 260 260 260 260 260 260 260 260 261 261 262 262 262 262 262 262 263 264 265 266 267 267 268 268 268 268
252 253 253 254 255 255 256 257 257 258 258 259 259 260 260 261 261 261 262 262 262 263 263 263 263 263 264 264 264 264 264 264 264 264 264 264 264 264 264 264 264 264 264 263 263 263 262 262 262 261 261 260 260 259 259 259 259 259 259 259 260 260 260 260 260 260 260 260 260 261 261 261 261 261 261 261 261 262 262 263 264 265 266 267 267 267 267 267
252 253 254 254 255 256 256 257 257 258 259 259 260 260 261 261 262 262 262 262 263 263 263 263 263 263 263 263 263 264 264 264 264 264 264 264 264 264 265 265 265 265 265 265 265 264 264 263 262 262 261 261 260 260 260 259 259 259 259 259 260 260 260 260 260 260 260 261 261 260 260 260 261 261 261 261 261 262 262 262 263 264 265 265 265 266 266 267
253 253 254 255 255 256 256 257 257 258 259 259 260 261 261 262 262 262 262 262 262 262 262 262 262 262 262 262 262 263 263 264 264 264 265 265 265 265 266 266 266 266 266 266 266 265 265 264 264 263 262 262 262 261 261 260 260 260 260 260 260 260 260 260 260 260 260 260 260 260 260 260 260 261 261 261 261 261 261 262 262 262 263 263 264 265 266 267
253 254 254 255 255 256 257 257 257 258 259 260 260 261 261 261 261 262 262 262 262 261 261 261 261 261 261 261 262 262 263 263 264 264 265 266 266 267 267 267 267 268 268 268 268 267 267 266 266 265 265 264 264 263 262 261 261 260 260 260 260 259 260 259 259 259 259 259 259 260 260 260 260 260 261 261 261 261 261 262 262 262 262 263 264 265 265 266
254 254 255 256 256 257 257 257 258 259 259 260 260 260 260 260 260 260 260 260 260 260 260 260 260 260 261 261 262 262 263 264 265 265 266 267 267 268 268 268 268 269 269 269 268 268 268 268 267 267 266 265 264 263 262 261 261 260 260 259 259 258 258 258 258 258 258 259 259 260 260 260 260 260 260 260 260 260 261 261 261 262 262 262 263 264 265 265
254 255 255 256 256 256 257 257 258 258 259 259 259 259 259 259 259 259 259 259 259 259 260 260 260 261 261 262 263 264 264 265 266 266 267 267 268 268 269 269 269 269 269 268 268 268 268 268 267 266 266 265 264 263 262 262 261 260 259 258 258 258 257 258 258 258 258 259 259 259 259 259 259 259 259 259 260 260 260 260 261 261 261 262 262 263 263 264
253 254 254 255 255 256 256 257 257 258 258 258 258 258 258 258 258 258 258 258 259 260 260 261 261 262 263 263 264 264 265 265 266 266 267 267 268 268 269 269 268 268 268 268 268 268 267 267 267 266 265 264 263 263 262 261 260 260 259 258 258 257 257 258 258 258 258 259 259 259 258 258 258 258 258 259 259 259 260 260 260 261 261 262 262 262 263 264
252 253 253 254 254 255 256 256 257 257 257 257 258 258 258 258 258 258 259 259 260 261 262 262 263 263 263 264 264 264 264 265 265 266 266 267 267 267 267 267 267 268 268 268 267 267 267 266 266 266 265 264 263 262 261 260 259 259 258 258 258 257 258 258 258 258 258 259 259 259 258 258 258 258 259 259 259 259 260 260 261 261 261 262 263 263 264 265
252 252 253 253 254 254 255 256 256 256 257 257 257 257 258 258 259 260 260 261 262 263 263 263 263 263 263 263 263 263 263 264 264 265 265 265 265 265 266 266 267 267 267 267 267 267 267 267 266 265 265 264 264 262 262 261 261 260 259 259 259 258 258 258 258 258 258 259 259 259 259 259 259 259 259 260 260 260 260 261 261 261 262 262 263 264 264 265
251 252 253 253 254 254 255 255 256 256 257 257 258 258 259 259 260 261 262 262 263 263 263 262 262 261 261 261 261 261 262 262 263 263 263 263 263 264 265 266 267 268 268 268 269 269 268 267 266 266 265 265 264 264 264 263 263 262 261 260 259 259 258 258 258 258 258 258 259 260 260 259 260 260 260 261 261 261 261 261 261 262 262 263 263 264 264 265
251 252 253 253 254 254 255 256 256 257 257 258 259 259 260 261 262 262 262 262 262 261 261 260 259 259 258 258 259 260 260 261 261 261 261 261 262 263 264 266 267 269 270 270 270 270 270 269 269 268 267 266 266 266 266 265 264 263 262 261 260 259 258 257 258 257 257 258 258 260 261 261 261 261 262 262 262 262 262 262 261 262 262 263 263 264 264 265
251 252 252 253 254 255 255 256 257 258 258 259 260 260 261 261 261 261 260 260 259 258 258 257 256 256 255 256 257 258 259 259 259 259 260 261 262 263 265 266 267 268 269 270 270 270 270 270 271 270 270 269 269 268 267 265 264 263 262 261 260 260 258 257 258 257 257 257 257 258 260 261 262 262 263 262 262 262 262 262 262 262 262 263 263 264 264 265
251 252 252 253 254 255 256 256 257 258 259 259 260 260 260 260 259 259 258 257 256 255 254 253 253 253 253 253 255 256 256 257 257 258 259 261 262 263 264 264 265 265 266 267 267 267 268 269 269 270 271 270 269 268 266 265 264 263 262 261 261 260 259 258 258 258 257 256 257 257 260 261 262 263 263 262 263 263 262 262 262 263 263 264 264 264 264 264
250 251 252 253 254 255 256 257 257 258 258 259 259 259 259 258 257 256 255 254 253 252 251 251 252 252 252 252 253 255 255 256 257 258 258 260 261 261 262 263 263 264 264 264 265 265 265 266 267 268 268 268 267 266 265 265 264 264 263 263 262 261 260 260 259 259 259 258 258 258 259 260 261 260 260 260 262 263 263 263 263 264 264 264 264 264 265 265
250 251 252 253 254 255 255 256 256 257 257 257 257 257 256 256 255 254 252 251 250 250 249 250 251 252 252 252 253 255 256 256 257 258 258 259 260 261 262 263 264 264 264 264 264 264 264 265 265 266 265 265 265 264 264 264 264 263 263 262 262 261 261 261 261 261 261 260 259 258 258 258 258 258 257 258 259 262 264 264 264 264 265 265 265 266 266 267
249 250 251 252 253 253 254 254 255 255 255 255 255 254 254 253 252 252 251 250 249 248 248 249 250 250 251 253 254 255 255 256 257 258 259 260 261 262 262 263 264 264 264 264 264 264 264 264 264 264 263 262 262 262 262 262 262 262 261 261 261 261 262 262 262 262 261 261 259 258 257 257 257 257 256 257 258 259 262 265 265 266 266 266 266 267 268 269
248 249 250 250 251 251 252 252 253 253 253 253 252 252 252 252 251 251 251 250 249 249 249 249 249 250 251 253 254 255 256 256 257 258 259 260 261 262 263 264 264 265 265 266 266 265 264 264 264 262 261 261 261 261 261 261 261 261 261 261 261 261 262 262 262 261 261 260 259 257 257 257 257 257 257 258 258 259 261 263 265 267 268 268 269 269 270 271
247 247 248 248 248 249 250 250 250 250 251 251 251 250 251 251 251 251 251 251 251 250 250 250 251 251 252 253 255 256 257 257 257 258 259 260 262 263 264 264 265 266 266 266 266 265 265 265 263 262 261 261 261 261 260 260 260 260 261 261 261 262 262 261 261 261 260 260 259 257 257 257 258 258 259 259 259 260 261 262 264 266 267 269 270 271 271 272
246 246 245 246 246 247 247 247 248 248 248 249 249 250 250 251 252 252 252 252 252 252 252 252 253 253 253 254 255 257 258 259 259 259 260 261 262 263 264 265 265 265 265 266 265 265 265 264 262 261 261 261 261 261 260 260 260 260 260 261 261 261 261 261 261 261 260 260 259 259 259 259 258 259 259 259 259 259 260 260 262 264 265 267 268 269 269 270
245 244 244 244 244 245 246 246 247 247 248 248 249 250 251 251 252 253 253 253 253 253 253 254 254 254 254 255 256 257 258 259 260 261 261 261 262 263 263 264 264 264 264 265 265 266 265 263 262 261 261 260 260 260 260 260 260 260 260 260 260 260 260 260 259 259 259 259 260 260 260 260 259 259 259 259 258 258 259 259 260 261 263 264 265 265 265 266
245 244 243 243 243 244 245 246 247 248 249 249 250 251 251 252 253 253 254 254 254 254 254 254 255 255 255 255 256 256 258 259 260 261 261 262 262 263 263 263 263 264 264 264 264 265 264 263 262 261 261 260 260 260 260 260 260 260 260 260 261 261 260 260 259 258 258 259 260 260 260 260 260 259 259 259 259 258 258 258 259 259 260 261 262 263 264 264
245 244 243 242 243 245 246 247 248 249 250 251 251 252 252 253 253 253 254 254 255 254 254 254 254 254 254 254 255 256 257 258 259 260 261 261 262 262 263 263 264 264 264 264 264 264 263 262 261 261 261 261 261 261 262 261 261 261 260 261 261 261 261 261 261 260 260 261 260 260 260 260 260 260 260 259 260 260 259 258 258 258 259 259 261 262 263 263
245 244 243 242 243 245 246 247 249 250 251 251 252 252 253 253 254 254 254 254 254 254 254 254 253 253 254 254 255 255 257 258 259 260 260 261 262 263 263 264 265 265 265 265 265 264 263 261 260 259 259 260 261 262 262 262 261 261 261 261 261 261 261 262 262 261 261 261 260 260 261 261 261 261 261 260 259 260 260 260 259 259 259 260 260 262 263 264
246 246 245 243 243 244 245 246 248 249 250 251 252 252 253 253 254 254 255 254 254 254 254 254 253 254 254 254 255 256 257 258 260 261 262 263 263 264 264 265 265 265 265 265 265 265 264 262 261 260 259 259 260 261 261 261 261 261 261 261 261 261 261 261 261 261 261 261 261 261 262 264 264 265 265 263 261 260 260 261 260 260 260 260 261 262 263 263
246 247 246 245 244 244 245 246 247 248 250 251 252 253 253 254 254 255 255 255 255 255 255 255 255 255 255 255 256 258 259 260 262 263 264 264 265 265 265 265 265 264 264 264 264 264 263 263 263 262 262 262 262 261 262 262 262 263 263 263 263 263 263 262 261 261 261 262 262 262 263 265 266 266 266 266 264 262 261 260 260 260 260 260 260 261 262 262
246 246 246 246 246 246 246 247 248 249 250 252 253 253 254 255 255 255 256 256 256 256 256 256 256 257 257 258 259 260 261 263 264 264 265 265 265 265 265 265 265 264 264 264 264 264 263 263 263 263 263 263 263 262 263 263 263 264 264 264 264 263 263 263 262 262 262 261 262 262 262 263 265 265 266 267 267 266 264 261 261 260 260 260 259 259 260 261
247 247 247 247 247 247 247 248 249 250 251 252 253 254 254 255 255 256 256 257 257 257 257 257 257 258 259 260 261 262 263 264 265 265 265 266 266 266 266 266 266 266 266 266 266 265 264 264 263 262 262 262 262 262 262 262 263 264 264 264 263 263 262 262 262 262 261 261 261 262 262 261 262 263 264 265 266 266 265 264 262 262 261 260 260 259 259 260
249 249 248 248 248 248 248 249 249 250 251 252 253 253 254 255 255 256 256 256 257 257 257 258 258 259 260 261 262 263 264 264 265 266 266 266 267 267 267 267 267 267 267 267 267 267 266 265 264 263 262 262 262 262 262 262 263 263 263 263 263 263 262 262 262 262 262 262 261 261 261 261 261 262 263 264 264 265 265 265 264 263 262 261 260 259 259 260
250 250 250 250 250 250 250 250 250 251 251 252 253 253 254 254 255 256 256 256 257 257 257 258 259 259 260 261 262 263 264 264 265 266 266 266 267 267 267 267 268 268 268 268 268 268 267 266 265 264 263 263 262 262 262 261 261 261 262 262 263 263 263 262 261 262 262 262 261 261 261 262 261 261 261 262 263 264 264 265 264 263 262 261 261 260 259 259
249 250 250 251 251 252 252 252 251 251 252 252 253 253 254 255 255 256 257 256 256 257 258 258 259 260 261 262 263 263 264 264 265 265 266 267 267 267 268 268 268 268 268 268 268 268 267 267 266 265 264 263 262 262 262 262 261 261 261 262 262 262 262 262 261 261 261 261 261 261 261 261 261 260 260 261 262 262 263 264 264 264 263 262 262 261 260 259
250 249 250 250 251 252 252 253 253 253 253 253 253 254 255 255 255 256 257 257 257 258 259 259 260 261 261 262 263 264 264 265 265 266 266 267 267 267 268 268 268 268 268 268 268 268 267 266 266 265 264 263 263 262 262 262 262 262 262 262 262 262 263 263 262 262 262 262 262 262 262 261 260 261 260 260 260 261 262 262 263 263 263 262 262 261 261 260
252 251 251 251 251 251 252 252 253 253 253 253 254 254 255 255 256 256 257 258 258 259 259 260 261 262 262 263 263 264 264 265 265 266 266 267 267 268 268 268 268 268 267 267 267 267 266 265 265 264 264 264 263 262 262 262 262 262 261 261 262 263 264 264 263 263 263 264 264 264 263 263 262 262 262 261 261 261 261 262 262 263 262 262 261 261 261 260
253 253 252 252 252 252 252 252 252 253 253 253 254 254 255 255 256 256 257 258 258 259 259 260 261 262 262 263 263 263 264 264 265 265 266 267 267 267 267 267 267 267 266 266 266 265 265 265 264 264 263 264 264 263 263 263 263 263 262 263 263 263 264 264 264 264 264 264 264 264 264 264 263 263 262 261 261 261 261 262 262 263 263 262 262 261 261 260
256 255 254 254 253 253 253 253 253 253 253 253 253 254 254 255 256 257 257 257 258 259 259 260 261 261 262 262 263 263 264 264 265 265 266 266 266 266 265 265 265 265 265 265 265 264 264 264 264 264 263 263 263 264 264 264 264 265 265 265 265 265 265 265 265 265 266 266 266 265 265 265 265 264 262 261 261 261 261 261 261 262 262 262 262 261 261 260
260 258 256 255 255 254 254 254 254 254 253 253 253 254 254 255 256 256 257 258 258 259 259 259 260 261 261 262 262 263 263 264 264 265 265 265 265 264 264 264 264 264 264 264 264 264 264 264 264 264 264 263 263 263 264 264 264 265 265 266 266 267 267 267 266 266 266 267 266 266 267 267 266 265 264 263 262 262 261 260 260 260 260 260 260 260 260 260
264 262 260 258 257 256 255 255 255 255 254 254 254 254 254 255 256 256 257 258 258 259 259 259 259 260 260 261 261 262 263 263 263 263 263 263 263 263 263 263 263 263 263 263 263 263 263 263 263 264 265 265 264 264 264 265 265 265 265 265 266 266 267 267 268 267 266 266 266 265 265 266 266 265 265 264 262 261 261 260 260 259 259 259 259 259 259 259
266 266 265 263 260 258 257 256 256 255 255 255 255 255 255 255 256 256 256 257 258 258 259 259 259 259 260 260 261 261 262 262 263 263 262 262 262 261 261 262 263 263 263 263 263 263 263 262 263 264 264 265 266 266 266 266 267 267 267 267 267 267 267 266 266 266 266 266 266 265 262 262 264 265 266 265 263 261 260 260 259 259 259 259 258 258 258 258
269 268 267 266 264 262 260 258 257 256 256 256 256 256 256 256 256 256 256 257 257 258 258 259 259 259 259 260 260 260 261 262 262 262 262 262 262 262 261 261 262 262 262 263 263 263 263 262 262 263 264 266 267 268 268 269 269 269 269 270 269 269 269 268 267 266 265 265 266 265 262 260 262 263 264 265 265 264 262 260 259 259 258 258 258 258 258 258
269 269 268 267 266 265 263 261 259 258 256 256 256 256 256 256 256 257 257 257 257 258 258 258 259 259 259 259 260 260 260 261 261 262 262 262 262 262 262 262 262 262 262 262 262 262 262 262 262 263 264 266 267 268 268 269 269 269 270 270 270 270 271 271 271 270 269 268 267 266 265 264 263 264 264 265 266 266 264 263 261 260 259 258 258 258 258 259
268 267 267 267 266 266 265 264 263 261 259 258 257 256 256 256 256 257 257 257 258 258 258 258 259 259 260 260 260 260 260 260 261 261 262 262 262 262 262 262 261 262 262 262 261 261 262 262 263 264 265 266 267 267 268 268 268 269 269 269 269 270 270 271 272 272 272 272 271 271 270 269 267 268 268 267 266 265 265 264 263 262 262 261 260 260 259 259
267 266 265 265 265 265 265 264 263 263 262 261 260 259 257 257 257 257 257 258 258 259 259 259 260 260 260 260 261 261 261 261 261 261 262 262 261 261 262 261 261 261 261 261 261 262 262 263 263 264 265 265 266 266 267 268 268 268 268 268 268 268 268 268 268 270 271 271 271 272 272 271 271 271 270 269 268 267 266 265 264 263 263 263 263 263 262 261
267 266 265 264 263 263 264 264 264 263 263 262 262 261 260 259 259 258 258 258 259 259 260 260 260 260 261 261 261 261 261 261 261 261 261 262 262 261 261 261 261 261 261 261 262 262 262 263 263 264 264 265 265 265 266 266 267 267 267 267 267 267 267 267 268 268 268 268 268 268 268 269 270 269 269 269 269 269 268 268 267 266 264 264 263 263 264 263
266 266 265 265 264 262 262 262 263 263 263 263 262 262 261 261 260 261 260 260 259 259 259 259 260 260 261 261 261 261 261 261 262 261 261 261 261 261 261 261 262 262 262 262 262 262 263 263 263 264 264 264 264 264 264 265 266 266 265 265 265 266 266 267 267 267 266 266 266 265 264 266 267 267 266 267 267 268 268 268 267 267 266 265 264 263 263 263
264 264 264 265 265 264 262 261 261 261 262 262 262 262 262 261 261 261 261 261 261 261 260 260 260 260 260 261 261 261 261 261 261 261 261 260 261 261 261 261 262 262 262 263 263 263 264 263 264 264 264 264 264 264 264 264 264 265 265 266 266 266 266 266 266 265 265 264 265 265 264 265 267 267 267 266 265 264 264 265 265 266 266 266 265 264 263 263
263 263 263 263 264 264 263 263 262 262 261 261 261 261 261 262 262 261 262 262 262 262 261 261 261 261 260 260 261 261 261 261 261 261 261 261 261 261 261 261 262 262 263 263 263 264 264 264 264 264 264 264 264 264 263 263 263 264 265 266 267 267 267 267 266 266 266 266 266 267 267 266 266 268 268 267 266 265 265 265 265 266 266 266 265 265 264 264
262 262 262 262 262 262 262 262 262 262 262 262 261 261 260 261 261 261 261 261 262 262 262 262 262 262 261 261 261 261 261 262 262 262 262 262 262 262 263 263 262 263 263 263 263 263 264 264 264 264 264 264 264 264 263 263 262 263 264 265 267 269 269 268 268 268 268 269 269 269 268 268 267 268 269 269 269 269 268 268 267 266 266 266 266 266 265 264
261 261 261 261 261 261 261 261 261 261 262 262 262 261 261 261 261 260 260 260 260 261 262 262 262 262 262 262 263 262 262 262 262 262 263 263 264 264 264 264 264 264 264 264 264 264 265 265 264 264 264 264 264 264 265 264 263 264 265 267 268 268 268 269 270 271 271 271 271 271 271 270 269 269 270 270 271 271 270 270 269 268 267 267 266 266 265 265
259 260 260 260 260 260 260 260 260 260 260 261 261 261 261 261 261 261 260 260 259 259 260 261 261 261 262 263 263 263 263 263 263 264 264 264 264 264 264 264 264 264 264 264 265 265 265 265 264 264 264 263 264 265 266 266 267 267 268 269 269 269 270 271 272 272 273 272 272 273 273 272 271 271 271 271 271 271 271 270 270 269 268 268 267 266 266 266
Height
10657 10658 10660 10661 10663 10665 10667 10669 10671 10673 10675 10677 10679 10680 10682 10684 10685 10687 10688 10690 10691 10692 10694 10695 10696 10697 10698 10699 10700 10700 10701 10703 10704 10705 10705 10705 10706 10707 10708 10709 10711 10712 10713 10713 10714 10715 10716 10717 10717 10718 10720 10722 10723 10724 10725 10726 10726 10727 10728 10729 10729 10730 10731 10735 10739 10740 10741 10743 10745 10744 10743 10744 10746 10748 10748 10748 10748 10746 10743 10741 10741 10743 10746 10747 10750 10749 10746 10745
10650 10651 10653 10654 10656 10658 10660 10662 10664 10666 10668 10670 10671 10673 10675 10677 10678 10679 10681 10682 10684 10685 10686 10687 10688 10689 10690 10691 10691 10692 10693 10694 10696 10696 10696 10697 10697 10699 10700 10701 10702 10703 10704 10704 10705 10706 10707 10708 10708 10709 10711 10712 10713 10715 10716 10716 10716 10717 10718 10719 10719 10720 10723 10728 10729 10730 10730 10732 10733 10732 10732 10732 10735 10737 10739 10739 10738 10737 10735 10732 10731 10734 10736 10737 10739 10738 10737 10738
10643 10644 10646 10647 10649 10651 10653 10655 10657 10659 10661 10662 10664 10665 10667 10669 10671 10672 10674 10675 10676 10677 10678 10679 10680 10681 10682 10682 10683 10684 10685 10686 10687 10687 10687 10688 10689 10690 10692 10693 10693 10694 10695 10696 10697 10698 10698 10699 10700 10701 10702 10703 10704 10705 10706 10706 10706 10707 10707 10708 10709 10712 10715 10718 10719 10720 10720 10721 10722 10722 10722 10722 10724 10727 10729 10730 10730 10729 10726 10724 10723 10724 10726 10729 10730 10728 10728 10730
10636 10638 10639 10641 10642 10644 10646 10648 10650 10652 10653 10655 10656 10658 10660 10661 10663 10665 10666 10667 10668 10670 10670 10671 10672 10673 10673 10674 10675 10675 10676 10677 10678 10678 10679 10680 10681 10681 10683 10684 10684 10685 10686 10687 10688 10689 10690 10691 10692 10692 10692 10693 10693 10695 10697 10697 10697 10697 10696 10698 10701 10704 10706 10707 10708 10709 10710 10711 10712 10712 10713 10714 10714 10716 10719 10720 10721 10720 10718 10718 10717 10716 10719 10722 10720 10718 10719 10719
10630 10631 10633 10634 10636 10638 10640 10641 10643 10644 10645 10647 10649 10651 10652 10654 10656 10657 10659 10660 10661 10662 10662 10663 10664 10664 10665 10666 10667 10667 10668 10669 10669 10670 10671 10671 10672 10673 10674 10675 10676 10677 10678 10679 10680 10681 10681 10682 10682 10682 10683 10683 10684 10686 10687 10687 10687 10687 10687 10690 10693 10695 10696 10697 10698 10699 10700 10701 10703 10704 10705 10705 10705 10706 10708 10709 10711 10711 10711 10712 10710 10710 10712 10713 10710 10709 10709 10709
10623 10625 10626 10628 10629 10631 10633 10634 10635 10637 10638 10640 10642 10643 10645 10647 10649 10650 10651 10652 10653 10654 10654 10655 10656 10656 10657 10658 10659 10659 10660 10661 10661 10662 10663 10663 10664 10665 10666 10666 10667 10668 10669 10670 10671 10672 10672 10672 10673 10673 10673 10674 10675 10677 10679 10678 10678 10678 10679 10683 10686 10686 10687 10688 10689 10690 10691 10692 10694 10694 10695 10696 10697 10697 10698 10700 10702 10702 10703 10703 10704 10705 10705 10703 10700 10699 10700 10699
10617 10618 10620 10621 10623 10625 10626 10627 10629 10630 10631 10633 10635 10637 10639 10640 10641 10643 10644 10644 10645 10646 10647 10647 10648 10649 10650 10650 10651 10652 10653 10653 10654 10655 10655 10656 10657 10658 10658 10659 10659 10660 10661 10662 10662 10662 10662 10663 10664 10664 10665 10667 10668 10669 10670 10669 10669 10671 10673 10676 10677 10677 10678 10679 10680 10681 10682 10683 10683 10684 10686 10688 10689 10689 10689 10691 10693 10693 10693 10694 10696 10698 10697 10695 10693 10692 10692 10691
10611 10613 10614 10615 10617 10618 10619 10621 10622 10624 10625 10627 10629 10630 10632 10633 10634 10636 10636 10637 10638 10639 10639 10640 10641 10642 10643 10643 10644 10645 10646 10646 10647 10648 10648 10649 10650 10651 10651 10651 10652 10653 10653 10654 10654 10654 10654 10654 10655 10656 10658 10658 10660 10660 10660 10660 10661 10664 10666 10667 10668 10668 10669 10670 10670 10671 10672 10673 10674 10676 10679 10680 10681 10681 10681 10683 10684 10683 10684 10685 10687 10688 10689 10688 10686 10685 10684 10683
10606 10607 10608 10609 10611 10612 10613 10615 10616 10618 10620 10621 10623 10624 10626 10627 10628 10629 10630 10631 10631 10632 10633 10634 10635 10636 10637 10637 10638 10639 10640 10640 10641 10642 10642 10643 10643 10644 10644 10644 10645 10646 10646 10646 10645 10646 10646 10646 10647 10648 10649 10650 10651 10651 10650 10652 10654 10656 10657 10658 10658 10659 10660 10660 10660 10662 10664 10665 10667 10669 10671 10672 10672 10672 10673 10673 10675 10675 10675 10676 10677 10679 10680 10680 10679 10678 10677 10677
10601 10602 10603 10604 10605 10606 10608 10609 10611 10613 10614 10616 10617 10618 10620 10621 10622 10623 10624 10625 10626 10626 10627 10628 10629 10630 10631 10631 10633 10634 10634 10634 10635 10635 10636 10637 10637 10637 10637 10638 10638 10638 10638 10638 10638 10638 10639 10639 10640 10640 10641 10642 10642 10642 10643 10645 10646 10647 10648 10649 10650 10651 10651 10651 10653 10655 10656 10658 10659 10661 10662 10663 10662 10663 10664 10665 10666 10667 10667 10668 10669 10669 10671 10671 10671 10670 10670 10669
10595 10597 10598 10599 10600 10601 10603 10605 10607 10608 10609 10610 10612 10613 10614 10616 10617 10618 10619 10620 10620 10620 10621 10623 10623 10624 10625 10626 10627 10627 10627 10628 10628 10629 10630 10631 10631 10630 10631 10631 10631 10631 10631 10631 10632 10632 10632 10633 10633 10634 10634 10635 10635 10636 10637 10638 10639 10640 10640 10641 10642 10643 10644 10645 10646 10648 10649 10650 10651 10652 10653 10653 10653 10654 10656 10657 10658 10659 10659 10660 10660 10661 10662 10662 10662 10662 10662 10661
10590 10591 10593 10594 10595 10596 10598 10600 10602 10603 10604 10605 10607 10608 10609 10610 10612 10613 10614 10614 10614 10615 10616 10617 10618 10619 10620 10620 10621 10621 10621 10622 10622 10623 10624 10624 10625 10624 10624 10624 10624 10624 10625 10625 10626 10626 10627 10627 10628 10628 10628 10629 10629 10630 10631 10632 10633 10634 10634 10635 10636 10637 10638 10639 10640 10641 10642 10643 10643 10643 10643 10643 10645 10647 10648 10649 10650 10651 10651 10652 10652 10653 10653 10654 10654 10654 10654 10654
10585 10587 10588 10589 10590 10592 10594 10596 10597 10598 10599 10600 10602 10603 10604 10605 10606 10607 10608 10608 10608 10609 10610 10611 10612 10613 10614 10614 10615 10615 10616 10616 10617 10617 10618 10619 10619 10619 10619 10619 10619 10619 10620 10620 10621 10621 10622 10623 10623 10623 10623 10624 10624 10624 10625 10626 10628 10629 10629 10630 10630 10631 10633 10633 10633 10635 10635 10636 10636 10635 10635 10636 10638 10639 10641 10642 10643 10643 10644 10645 10645 10645 10645 10646 10647 10647 10647 10647
10580 10582 10583 10584 10586 10587 10589 10591 10592 10593 10594 10595 10596 10597 10599 10600 10601 10602 10603 10603 10603 10604 10605 10605 10606 10608 10609 10609 10609 10610 10611 10611 10612 10612 10613 10614 10614 10614 10614 10614 10614 10615 10615 10616 10616 10617 10617 10618 10618 10618 10619 10619 10619 10620 10621 10622 10623 10624 10624 10625 10625 10625 10627 10627 10627 10629 10630 10631 10630 10628 10628 10630 10632 10633 10634 10635 10635 10636 10637 10637 10638 10638 10638 10639 10640 10639 10639 10639
10576 10577 10578 10579 10581 10583 10584 10586 10587 10588 10589 10590 10591 10592 10593 10595 10595 10596 10597 10597 10597 10598 10599 10600 10601 10603 10604 10604 10604 10605 10606 10607 10607 10607 10608 10609 10610 10610 10610 10610 10610 10611 10611 10611 10612 10612 10613 10613 10614 10614 10615 10615 10616 10616 10617 10618 10618 10619 10619 10620 10619 10620 10622 10622 10622 10624 10625 10625 10625 10623 10622 10625 10626 10627 10629 10629 10629 10629 10630 10630 10631 10631 10631 10633 10633 10633 10633 10633
10571 10572 10573 10575 10576 10577 10579 10580 10581 10582 10583 10584 10585 10586 10588 10589 10590 10590 10591 10592 10592 10593 10594 10595 10596 10598 10600 10600 10600 10601 10601 10602 10603 10603 10604 10605 10605 10606 10606 10606 10607 10607 10607 10607 10608 10608 10608 10609 10610 10610 10611 10611 10612 10613 10613 10613 10613 10614 10614 10615 10615 10615 10617 10617 10618 10620 10620 10621 10621 10619 10618 10620 10621 10622 10623 10623 10623 10623 10623 10624 10624 10625 10625 10626 10627 10627 10627 10627
10566 10567 10568 10570 10571 10572 10574 10575 10576 10577 10578 10578 10580 10581 10582 10583 10584 10585 10586 10587 10588 10588 10590 10591 10591 10593 10595 10595 10596 10596 10596 10597 10598 10599 10600 10600 10601 10602 10602 10602 10603 10603 10603 10603 10603 10603 10604 10605 10606 10607 10607 10607 10608 10608 10609 10609 10609 10609 10610 10610 10611 10611 10612 10613 10614 10615 10616 10617 10617 10616 10614 10616 10617 10617 10618 10618 10617 10616 10616 10618 10619 10619 10619 10620 10621 10621 10621 10621
10561 10562 10563 10564 10566 10567 10568 10570 10571 10571 10572 10573 10575 10575 10577 10578 10579 10580 10581 10582 10583 10584 10585 10586 10587 10589 10590 10590 10592 10592 10592 10593 10594 10595 10596 10596 10597 10597 10598 10598 10598 10598 10599 10599 10599 10599 10600 10601 10602 10603 10603 10603 10603 10604 10604 10605 10605 10605 10606 10607 10607 10607 10607 10609 10610 10611 10612 10613 10614 10613 10611 10612 10613 10613 10614 10613 10612 10611 10611 10613 10613 10613 10614 10615 10615 10615 10615 10616
10556 10557 10558 10559 10561 10562 10563 10565 10566 10566 10567 10568 10570 10570 10571 10572 10574 10575 10576 10577 10578 10579 10581 10582 10583 10584 10584 10586 10587 10588 10588 10589 10589 10590 10591 10591 10592 10593 10593 10593 10594 10594 10594 10594 10594 10595 10596 10598 10599 10599 10599 10598 10599 10600 10600 10601 10601 10602 10602 10602 10603 10603 10604 10605 10606 10607 10608 10609 10610 10610 10608 10608 10609 10609 10610 10609 10608 10607 10606 10607 10608 10608 10609 10609 10610 10610 10610 10611
10551 10552 10553 10554 10556 10557 10558 10559 10560 10561 10562 10563 10565 10566 10567 10567 10569 10570 10571 10573 10573 10574 10576 10577 10578 10579 10580 10581 10582 10583 10584 10584 10585 10585 10586 10587 10587 10588 10589 10589 10589 10589 10589 10589 10589 10591 10592 10593 10595 10595 10594 10593 10594 10596 10596 10596 10597 10597 10598 10598 10599 10599 10600 10601 10602 10603 10604 10604 10605 10605 10604 10604 10604 10605 10605 10605 10604 10603 10602 10602 10602 10603 10603 10604 10605 10605 10606 10606
10546 10548 10548 10549 10551 10552 10553 10554 10556 10557 10558 10559 10560 10561 10562 10563 10564 10565 10566 10568 10568 10570 10571 10572 10573 10574 10576 10576 10577 10578 10579 10580 10580 10581 10581 10582 10583 10583 10584 10584 10584 10584 10584 10584 10584 10586 10588 10589 10590 10590 10588 10588 10589 10591 10591 10592 10592 10593 10593 10594 10594 10595 10597 10598 10598 10599 10599 10599 10601 10601 10600 10600 10600 10600 10601 10601 10601 10600 10599 10598 10597 10598 10599 10599 10600 10601 10602 10602
10542 10543 10544 10545 10546 10547 10549 10550 10551 10552 10553 10554 10556 10557 10557 10558 10559 10560 10562 10563 10563 10565 10567 10567 10568 10570 10571 10572 10572 10573 10573 10575 10576 10576 10577 10577 10578 10578 10579 10579 10580 10579 10579 10578 10579 10580 10583 10585 10585 10584 10583 10583 10584 10585 10586 10587 10588 10588 10589 10589 10590 10591 10593 10593 10594 10595 10595 10594 10595 10595 10595 10596 10596 10595 10596 10597 10597 10597 10596 10595 10594 10594 10594 10594 10596 10597 10597 10597
10537 10539 10540 10541 10542 10543 10544 10545 10546 10548 10549 10550 10551 10552 10553 10554 10555 10556 10557 10558 10559 10560 10562 10562 10563 10565 10567 10568 10568 10568 10568 10569 10570 10571 10572 10572 10573 10573 10574 10574 10575 10574 10574 10573 10574 10575 10578 10580 10579 10579 10578 10578 10579 10579 10580 10582 10583 10584 10584 10584 10586 10587 10588 10588 10590 10590 10589 10589 10589 10590 10590 10590 10591 10591 10591 10592 10593 10593 10592 10591 10591 10590 10590 10590 10591 10592 10592 10592
10533 10534 10536 10537 10538 10539 10540 10541 10542 10543 10544 10546 10547 10548 10549 10550 10551 10551 10552 10553 10554 10555 10557 10557 10558 10560 10562 10563 10563 10563 10564 10564 10565 10566 10566 10567 10568 10569 10569 10570 10570 10569 10569 10569 10569 10571 10574 10574 10574 10574 10573 10573 10573 10574 10575 10576 10578 10579 10579 10579 10581 10582 10583 10584 10585 10584 10583 10583 10583 10585 10584 10584 10586 10586 10586 10587 10587 10587 10587 10587 10587 10587 10586 10585 10585 10586 10587 10587
10529 10530 10532 10533 10534 10535 10536 10537 10538 10539 10540 10542 10543 10544 10545 10545 10546 10547 10547 10548 10549 10550 10551 10552 10554 10555 10557 10558 10558 10558 10559 10559 10560 10561 10561 10562 10563 10564 10564 10565 10565 10565 10564 10565 10565 10567 10569 10569 10569 10569 10568 10568 10569 10569 10571 10572 10573 10574 10574 10574 10576 10577 10578 10578 10580 10579 10578 10578 10579 10579 10577 10578 10581 10580 10581 10581 10581 10582 10582 10582 10583 10582 10581 10580 10580 10581 10582 10582
10524 10526 10527 10529 10530 10531 10532 10533 10533 10535 10536 10537 10538 10539 10540 10541 10542 10542 10543 10543 10544 10545 10547 10548 10549 10550 10552 10553 10553 10554 10554 10555 10556 10556 10556 10557 10558 10559 10560 10560 10560 10560 10560 10560 10561 10563 10564 10564 10564 10565 10564 10563 10564 10565 10566 10567 10568 10569 10569 10570 10571 10572 10573 10573 10574 10574 10574 10574 10575 10573 10571 10573 10575 10574 10576 10577 10576 10576 10576 10577 10578 10577 10577 10576 10576 10576 10577 10577
10520 10521 10523 10525 10526 10527 10527 10528 10529 10530 10532 10533 10534 10535 10535 10536 10537 10537 10538 10538 10539 10541 10542 10543 10544 10546 10547 10548 10548 10549 10549 10550 10551 10551 10552 10552 10553 10554 10555 10555 10555 10556 10555 10555 10556 10558 10559 10559 10559 10560 10559 10559 10560 10561 10562 10562 10563 10563 10565 10566 10567 10568 10568 10569 10569 10569 10569 10569 10569 10567 10566 10568 10569 10568 10570 10571 10571 10570 10571 10573 10573 10572 10572 10572 10572 10572 10572 10572
10515 10517 10518 10520 10521 10522 10523 10523 10525 10526 10527 10528 10529 10529 10530 10532 10532 10532 10532 10533 10534 10536 10537 10538 10540 10541 10542 10542 10543 10544 10544 10545 10546 10546 10547 10548 10549 10550 10551 10551 10551 10551 10550 10550 10551 10552 10553 10554 10554 10554 10554 10555 10556 10557 10557 10558 10557 10558 10560 10561 10562 10564 10564 10565 10565 10564 10564 10564 10563 10563 10562 10562 10563 10563 10563 10564 10565 10566 10567 10568 10568 10567 10568 10568 10569 10569 10568 10567
10510 10512 10513 10515 10516 10517 10518 10519 10520 10521 10522 10523 10524 10524 10525 10527 10527 10527 10527 10528 10529 10531 10532 10533 10535 10536 10536 10537 10538 10539 10540 10541 10541 10542 10542 10543 10544 10545 10546 10546 10546 10546 10545 10545 10546 10547 10548 10548 10549 10549 10549 10550 10551 10552 10552 10553 10552 10553 10556 10557 10557 10559 10559 10559 10559 10559 10559 10559 10558 10559 10559 10559 10558 10558 10557 10556 10558 10560 10562 10562 10562 10562 10563 10563 10564 10564 10562 10561
10505 10506 10507 10509 10510 10511 10513 10514 10514 10515 10517 10518 10518 10519 10520 10521 10521 10522 10522 10523 10524 10526 10527 10528 10529 10530 10530 10531 10532 10534 10534 10535 10536 10536 10537 10538 10539 10540 10540 10540 10540 10540 10540 10540 10540 10541 10542 10543 10544 10544 10544 10545 10546 10546 10547 10548 10548 10549 10551 10551 10552 10553 10553 10554 10554 10553 10554 10553 10553 10554 10555 10555 10553 10552 10551 10549 10551 10553 10554 10556 10556 10557 10557 10558 10558 10558 10557 10556
10499 10500 10502 10503 10504 10505 10507 10508 10509 10510 10511 10512 10513 10514 10515 10515 10516 10516 10516 10518 10519 10520 10521 10522 10523 10524 10524 10526 10527 10528 10529 10529 10530 10530 10531 10532 10533 10534 10534 10534 10534 10534 10534 10534 10534 10535 10536 10537 10538 10539 10539 10539 10540 10541 10542 10543 10543 10544 10545 10544 10545 10546 10547 10548 10547 10547 10548 10548 10548 10548 10549 10550 10548 10547 10546 10544 10545 10545 10546 10548 10549 10550 10551 10552 10552 10552 10552 10551
10493 10494 10496 10497 10498 10499 10501 10502 10504 10505 10506 10507 10508 10508 10509 10509 10510 10510 10511 10512 10514 10514 10515 10516 10517 10518 10518 10520 10521 10522 10523 10523 10524 10525 10525 10526 10527 10527 10528 10528 10528 10528 10528 10528 10528 10529 10530 10531 10532 10532 10533 10533 10534 10535 10536 10537 10538 10539 10538 10537 10539 10539 10540 10542 10542 10541 10542 10541 10542 10542 10543 10544 10543 10542 10541 10540 10539 10538 10539 10540 10542 10543 10544 10545 10546 10547 10547 10546
10487 10488 10489 10490 10492 10493 10495 10496 10498 10499 10500 10501 10502 10502 10503 10503 10504 10504 10505 10507 10507 10507 10509 10510 10511 10511 10512 10514 10515 10515 10516 10516 10517 10518 10519 10520 10521 10521 10521 10521 10521 10522 10522 10521 10521 10522 10523 10524 10525 10526 10526 10527 10528 10529 10530 10531 10532 10533 10531 10531 10533 10531 10532 10536 10536 10536 10536 10534 10535 10536 10537 10538 10537 10536 10536 10534 10533 10532 10532 10532 10534 10535 10537 10538 10539 10540 10540 10541
10480 10481 10482 10483 10485 10487 10488 10490 10491 10492 10493 10494 10495 10496 10496 10497 10498 10498 10498 10500 10501 10501 10502 10503 10504 10505 10506 10507 10508 10509 10509 10510 10511 10511 10512 10513 10514 10514 10514 10514 10514 10515 10515 10515 10515 10515 10516 10517 10517 10518 10520 10520 10521 10523 10523 10524 10524 10526 10525 10525 10526 10524 10525 10529 10529 10529 10529 10527 10528 10531 10531 10532 10530 10529 10530 10528 10527 10526 10525 10525 10526 10527 10529 10530 10532 10533 10533 10534
10473 10474 10476 10477 10478 10480 10481 10483 10484 10486 10487 10488 10488 10489 10490 10490 10491 10492 10492 10494 10495 10495 10496 10497 10497 10498 10499 10501 10501 10502 10502 10502 10503 10504 10505 10506 10507 10507 10507 10507 10507 10507 10508 10508 10508 10507 10509 10510 10509 10510 10512 10512 10514 10515 10516 10517 10517 10518 10519 10519 10518 10518 10519 10522 10522 10522 10521 10520 10522 10524 10524 10524 10523 10522 10523 10522 10521 10520 10518 10519 10519 10520 10521 10522 10524 10525 10526 10527
10466 10467 10468 10470 10471 10472 10474 10475 10477 10478 10479 10481 10482 10482 10483 10483 10484 10485 10486 10487 10488 10489 10489 10490 10491 10491 10492 10493 10494 10495 10495 10495 10496 10496 10498 10499 10500 10500 10500 10500 10500 10500 10501 10501 10501 10501 10501 10502 10502 10503 10504 10505 10506 10508 10508 10510 10510 10511 10512 10511 10511 10513 10512 10513 10514 10515 10514 10514 10516 10517 10517 10516 10515 10515 10516 10514 10513 10513 10513 10512 10512 10512 10513 10515 10516 10517 10517 10519
10459 10460 10461 10462 10464 10465 10467 10468 10469 10471 10472 10473 10474 10475 10476 10476 10476 10478 10479 10480 10481 10482 10483 10484 10483 10484 10485 10486 10486 10487 10487 10488 10489 10489 10491 10492 10492 10493 10493 10493 10493 10493 10493 10494 10494 10494 10494 10494 10494 10496 10498 10498 10498 10499 10501 10502 10503 10503 10504 10504 10505 10507 10505 10504 10507 10508 10507 10507 10509 10510 10510 10509 10508 10508 10507 10505 10506 10506 10506 10506 10506 10505 10505 10506 10508 10508 10509 10510
10453 10453 10454 10455 10456 10458 10460 10460 10462 10463 10464 10465 10466 10467 10468 10469 10469 10470 10472 10473 10474 10474 10476 10477 10476 10477 10478 10478 10479 10479 10479 10480 10482 10482 10483 10485 10485 10486 10486 10486 10487 10487 10487 10487 10488 10488 10488 10487 10487 10489 10491 10491 10491 10492 10493 10495 10495 10495 10496 10497 10497 10498 10498 10498 10500 10501 10500 10500 10502 10502 10502 10501 10500 10498 10497 10497 10499 10499 10499 10499 10499 10498 10497 10498 10499 10500 10500 10502
10446 10447 10447 10448 10449 10451 10452 10453 10454 10455 10456 10458 10459 10460 10461 10461 10462 10463 10464 10465 10466 10466 10468 10470 10470 10470 10471 10471 10471 10471 10471 10472 10474 10475 10476 10478 10478 10478 10479 10479 10480 10481 10481 10481 10482 10483 10482 10481 10481 10482 10483 10484 10485 10486 10486 10487 10488 10488 10489 10490 10489 10490 10490 10490 10492 10494 10492 10492 10494 10495 10495 10493 10489 10487 10487 10490 10492 10491 10490 10491 10491 10491 10490 10490 10491 10491 10492 10493
10441 10441 10441 10442 10443 10443 10444 10445 10446 10447 10449 10450 10451 10452 10454 10454 10455 10456 10456 10457 10458 10459 10460 10461 10462 10463 10463 10463 10464 10464 10464 10465 10467 10468 10469 10471 10471 10471 10472 10472 10473 10474 10474 10475 10475 10476 10476 10476 10475 10476 10476 10476 10477 10479 10480 10479 10480 10481 10481 10482 10482 10482 10482 10482 10484 10485 10484 10484 10486 10488 10489 10485 10479 10478 10480 10480 10482 10483 10482 10482 10482 10482 10483 10483 10483 10484 10484 10484
10436 10436 10436 10437 10437 10437 10437 10438 10439 10440 10441 10442 10443 10445 10446 10447 10447 10448 10449 10449 10450 10451 10452 10453 10454 10455 10456 10456 10456 10457 10457 10457 10459 10460 10462 10463 10463 10464 10466 10466 10466 10467 10467 10468 10469 10469 10470 10470 10469 10470 10469 10468 10470 10472 10472 10472 10472 10473 10473 10474 10474 10474 10475 10475 10477 10476 10476 10477 10478 10479 10482 10478 10472 10472 10472 10471 10472 10474 10474 10475 10475 10475 10475 10476 10476 10476 10476 10477
10432 10432 10431 10431 10432 10431 10432 10432 10432 10433 10433 10434 10436 10437 10438 10439 10439 10440 10441 10442 10442 10443 10444 10445 10446 10447 10448 10449 10449 10450 10450 10451 10451 10452 10454 10455 10456 10457 10459 10459 10459 10460 10460 10461 10462 10462 10462 10463 10463 10463 10462 10462 10463 10464 10464 10464 10464 10464 10465 10466 10466 10466 10466 10466 10468 10468 10468 10472 10471 10469 10472 10471 10466 10465 10465 10464 10465 10466 10467 10467 10468 10468 10468 10468 10469 10469 10469 10470
10427 10427 10427 10426 10426 10426 10426 10426 10426 10426 10427 10427 10428 10430 10431 10431 10432 10433 10433 10434 10435 10436 10437 10438 10438 10439 10440 10441 10442 10442 10443 10444 10444 10445 10446 10447 10448 10449 10451 10452 10452 10452 10453 10454 10455 10455 10455 10455 10457 10456 10456 10456 10456 10456 10456 10456 10456 10457 10458 10458 10457 10458 10458 10457 10458 10458 10459 10463 10462 10460 10462 10462 10460 10459 10459 10458 10458 10458 10458 10459 10459 10460 10460 10461 10462 10462 10463 10463
10423 10423 10422 10422 10421 10421 10421 10421 10420 10420 10421 10421 10422 10423 10424 10424 10425 10425 10426 10426 10428 10428 10429 10430 10431 10431 10432 10433 10433 10434 10435 10436 10437 10438 10438 10439 10441 10441 10442 10444 10444 10444 10445 10446 10448 10448 10447 10448 10450 10449 10449 10450 10449 10448 10449 10449 10449 10450 10450 10451 10450 10450 10450 10450 10449 10448 10450 10454 10453 10452 10454 10453 10452 10453 10452 10450 10451 10450 10450 10451 10452 10452 10453 10453 10455 10455 10456 10457
10417 10417 10417 10417 10417 10416 10416 10415 10414 10415 10415 10415 10416 10417 10417 10418 10418 10418 10419 10420 10421 10421 10422 10422 10423 10424 10424 10425 10425 10426 10427 10428 10429 10431 10431 10431 10433 10434 10434 10435 10436 10437 10438 10438 10439 10440 10440 10441 10442 10442 10442 10443 10442 10441 10442 10442 10442 10443 10442 10443 10443 10442 10443 10443 10443 10442 10443 10445 10446 10446 10445 10443 10443 10444 10443 10442 10442 10442 10443 10444 10444 10445 10446 10447 10448 10449 10450 10450
10411 10411 10411 10411 10412 10412 10411 10410 10409 10409 10410 10410 10410 10411 10411 10412 10412 10412 10413 10414 10414 10414 10415 10415 10416 10416 10417 10418 10418 10419 10420 10420 10421 10423 10424 10423 10424 10426 10426 10427 10428 10430 10430 10431 10431 10432 10432 10433 10434 10434 10434 10435 10434 10435 10436 10435 10435 10436 10435 10435 10434 10434 10434 10435 10436 10437 10436 10437 10439 10440 10438 10437 10436 10436 10434 10433 10434 10434 10434 10435 10436 10437 10439 10439 10440 10441 10442 10443
10406 10406 10405 10405 10406 10407 10407 10405 10404 10404 10404 10404 10405 10405 10405 10406 10407 10406 10407 10408 10408 10408 10408 10408 10409 10409 10410 10410 10410 10411 10412 10413 10413 10415 10416 10416 10416 10417 10418 10419 10421 10421 10422 10423 10423 10423 10424 10425 10425 10426 10426 10427 10427 10428 10429 10428 10427 10428 10428 10427 10427 10426 10427 10427 10429 10430 10428 10429 10431 10430 10431 10432 10430 10428 10427 10425 10426 10427 10426 10426 10427 10428 10429 10431 10432 10433 10434 10435
10400 10400 10399 10399 10400 10401 10401 10400 10399 10399 10399 10399 10399 10400 10399 10400 10401 10401 10401 10401 10402 10402 10402 10402 10403 10402 10403 10403 10403 10404 10405 10405 10406 10407 10407 10408 10409 10410 10410 10411 10413 10413 10413 10414 10414 10414 10415 10416 10418 10418 10418 10419 10420 10421 10422 10421 10420 10419 10419 10420 10419 10419 10420 10420 10421 10420 10418 10420 10422 10420 10424 10427 10423 10419 10419 10417 10417 10419 10418 10418 10420 10420 10421 10422 10423 10424 10425 10426
10394 10394 10393 10393 10394 10394 10394 10394 10394 10393 10393 10393 10394 10394 10394 10394 10395 10396 10395 10395 10395 10396 10395 10396 10396 10396 10397 10397 10396 10397 10398 10398 10399 10399 10399 10400 10401 10402 10402 10404 10405 10404 10405 10405 10406 10407 10406 10407 10410 10409 10409 10411 10412 10412 10413 10413 10413 10413 10412 10412 10411 10411 10412 10411 10411 10410 10409 10412 10413 10412 10417 10420 10414 10410 10410 10407 10407 10410 10410 10411 10413 10412 10412 10413 10413 10414 10416 10417
10386 10386 10387 10387 10387 10388 10387 10387 10387 10387 10387 10387 10388 10388 10388 10388 10389 10389 10390 10389 10389 10389 10389 10389 10390 10390 10390 10390 10390 10391 10392 10392 10392 10392 10392 10392 10394 10394 10394 10396 10397 10397 10397 10397 10398 10399 10398 10399 10401 10400 10401 10404 10403 10402 10404 10404 10405 10406 10406 10405 10404 10403 10401 10400 10400 10400 10401 10403 10403 10402 10407 10410 10405 10402 10400 10397 10397 10401 10401 10402 10403 10403 10403 10403 10404 10405 10406 10407
10378 10378 10379 10379 10380 10380 10380 10381 10380 10380 10380 10381 10381 10382 10382 10382 10383 10383 10383 10383 10383 10383 10383 10383 10384 10384 10383 10384 10384 10384 10385 10386 10385 10386 10386 10386 10386 10387 10387 10388 10388 10389 10389 10389 10390 10391 10390 10391 10392 10391 10393 10396 10394 10394 10395 10394 10397 10399 10399 10398 10396 10392 10391 10392 10392 10392 10393 10393 10392 10392 10397 10398 10395 10393 10391 10388 10388 10390 10391 10391 10391 10392 10393 10393 10394 10395 10396 10397
10370 10370 10371 10371 10372 10372 10373 10373 10373 10373 10374 10374 10374 10374 10375 10375 10376 10376 10376 10377 10377 10377 10377 10376 10377 10377 10377 10378 10378 10378 10379 10379 10379 10379 10379 10379 10380 10380 10380 10380 10380 10380 10381 10381 10382 10383 10382 10382 10382 10383 10386 10387 10386 10386 10386 10385 10388 10391 10391 10389 10385 10382 10383 10384 10383 10383 10383 10382 10382 10383 10385 10385 10385 10383 10380 10379 10380 10380 10380 10381 10380 10380 10382 10382 10383 10385 10386 10387